,,PA_Meas_PMT16A,,PR_Meas_QMR101_102,,RH_Meas_QMH101,,SR_Meas_QMS101,,TA_Meas_QMH101,,GenWind,,GenWind,
time,status,PA,status,PR,status,RH,status,SR,status,TA,status,DirAvg,status,SpdAvg,
2012-07-19, 00:00:05,VALID,918.44,VALID,0,VALID,96.5734,VALID,0,VALID,20.2894,VALID,1,VALID,0,
2012-07-19, 00:01:05,VALID,918.449,VALID,0,VALID,96.5734,VALID,0,VALID,20.2894,VALID,1,VALID,0,
2012-07-19, 00:02:05,VALID,918.434,VALID,0,VALID,96.5887,VALID,0,VALID,20.3089,VALID,1,VALID,0,
2012-07-19, 00:03:05,VALID,918.425,VALID,0,VALID,96.6115,VALID,0,VALID,20.2894,VALID,1,VALID,0,
2012-07-19, 00:04:05,VALID,918.41,VALID,0,VALID,96.6192,VALID,0,VALID,20.2894,VALID,1,VALID,0,
2012-07-19, 00:05:05,VALID,918.389,VALID,0,VALID,96.6039,VALID,0,VALID,20.2894,VALID,1,VALID,0,
2012-07-19, 00:06:05,VALID,918.375,VALID,0,VALID,96.6192,VALID,0,VALID,20.2504,VALID,1,VALID,0,
2012-07-19, 00:07:05,VALID,918.371,VALID,0,VALID,96.5734,VALID,0,VALID,20.2309,VALID,1,VALID,0,
2012-07-19, 00:08:05,VALID,918.396,VALID,0,VALID,96.5734,VALID,0,VALID,20.2129,VALID,1,VALID,0,
2012-07-19, 00:09:05,VALID,918.359,VALID,0,VALID,96.5811,VALID,0,VALID,20.1724,VALID,1,VALID,0,
2012-07-19, 00:10:05,VALID,918.378,VALID,0,VALID,96.7107,VALID,0,VALID,20.2114,VALID,1,VALID,0,
2012-07-19, 00:11:05,VALID,918.35,VALID,0,VALID,96.6954,VALID,0,VALID,20.2129,VALID,1,VALID,0,
2012-07-19, 00:12:05,VALID,918.356,VALID,0,VALID,96.7183,VALID,0,VALID,20.2114,VALID,1,VALID,0,
2012-07-19, 00:13:05,VALID,918.35,VALID,0,VALID,96.6954,VALID,0,VALID,20.2324,VALID,1,VALID,0,
2012-07-19, 00:14:05,VALID,918.331,VALID,0,VALID,96.7183,VALID,0,VALID,20.2129,VALID,1,VALID,0,
2012-07-19, 00:15:05,VALID,918.328,VALID,0,VALID,96.7183,VALID,0,VALID,20.1724,VALID,1,VALID,0,
2012-07-19, 00:16:05,VALID,918.287,VALID,0,VALID,96.6954,VALID,0,VALID,20.1739,VALID,63,VALID,0,
2012-07-19, 00:17:05,VALID,918.326,VALID,0,VALID,96.703,VALID,0,VALID,20.1334,VALID,63,VALID,0,
2012-07-19, 00:18:05,VALID,918.3,VALID,0,VALID,96.7411,VALID,0,VALID,20.1334,VALID,63,VALID,0,
2012-07-19, 00:19:05,VALID,918.331,VALID,0,VALID,96.7564,VALID,0,VALID,20.1334,VALID,63,VALID,0,
2012-07-19, 00:20:05,VALID,918.307,VALID,0,VALID,96.7869,VALID,0,VALID,20.1934,VALID,63,VALID,0,
2012-07-19, 00:21:05,VALID,918.33,VALID,0,VALID,96.7945,VALID,0,VALID,20.1934,VALID,63,VALID,0,
2012-07-19, 00:22:05,VALID,918.305,VALID,0,VALID,96.8174,VALID,0,VALID,20.1934,VALID,63,VALID,0,
2012-07-19, 00:23:05,VALID,918.302,VALID,0,VALID,96.8403,VALID,0,VALID,20.2129,VALID,63,VALID,0,
2012-07-19, 00:24:05,VALID,918.305,VALID,0,VALID,96.8555,VALID,0,VALID,20.1724,VALID,63,VALID,0,
2012-07-19, 00:25:05,VALID,918.277,VALID,0,VALID,96.8555,VALID,0,VALID,20.2129,VALID,63,VALID,0,
2012-07-19, 00:26:05,VALID,918.267,VALID,0,VALID,96.8631,VALID,0,VALID,20.234,VALID,63,VALID,0,
2012-07-19, 00:27:05,VALID,918.245,VALID,0,VALID,96.8707,VALID,0,VALID,20.2129,VALID,63,VALID,0,
2012-07-19, 00:28:05,VALID,918.254,VALID,0,VALID,96.8479,VALID,0,VALID,20.1934,VALID,63,VALID,0,
2012-07-19, 00:29:05,VALID,918.224,VALID,0,VALID,96.8707,VALID,0,VALID,20.1934,VALID,63,VALID,0,
2012-07-19, 00:30:04,VALID,918.233,VALID,0,VALID,96.8707,VALID,0,VALID,20.1739,VALID,63,VALID,0,
2012-07-19, 00:31:04,VALID,918.158,VALID,0,VALID,96.8784,VALID,0,VALID,20.1544,VALID,63,VALID,0,
2012-07-19, 00:32:04,VALID,918.172,VALID,0,VALID,96.8707,VALID,0,VALID,20.1349,VALID,63,VALID,0,
2012-07-19, 00:33:04,VALID,918.137,VALID,0,VALID,96.8631,VALID,0,VALID,20.1349,VALID,63,VALID,0,
2012-07-19, 00:34:04,VALID,918.108,VALID,0,VALID,96.8403,VALID,0,VALID,20.0764,VALID,64,VALID,0,
2012-07-19, 00:35:04,VALID,918.087,VALID,0,VALID,96.8479,VALID,0,VALID,20.0553,VALID,64,VALID,0,
2012-07-19, 00:36:04,VALID,918.113,VALID,0,VALID,96.8555,VALID,0,VALID,20.0374,VALID,63,VALID,0,
2012-07-19, 00:37:04,VALID,918.116,VALID,0,VALID,96.8936,VALID,0,VALID,20.0179,VALID,63,VALID,0,
2012-07-19, 00:38:04,VALID,918.1,VALID,0,VALID,96.8936,VALID,0,VALID,20.0179,VALID,63,VALID,0,
2012-07-19, 00:39:04,VALID,918.096,VALID,0,VALID,96.9165,VALID,0,VALID,19.9984,VALID,63,VALID,0,
2012-07-19, 00:40:04,VALID,918.09,VALID,0,VALID,96.947,VALID,0,VALID,19.9984,VALID,63,VALID,0,
2012-07-19, 00:41:04,VALID,918.076,VALID,0,VALID,96.9775,VALID,0,VALID,20.0179,VALID,64,VALID,0,
2012-07-19, 00:42:04,VALID,918.087,VALID,0,VALID,96.9851,VALID,0,VALID,19.9968,VALID,63,VALID,0,
2012-07-19, 00:43:04,VALID,918.08,VALID,0,VALID,96.9851,VALID,0,VALID,19.9984,VALID,63,VALID,0,
2012-07-19, 00:44:04,VALID,918.056,VALID,0,VALID,96.9927,VALID,0,VALID,20.0179,VALID,63,VALID,0,
2012-07-19, 00:45:04,VALID,918.033,VALID,0,VALID,97.0156,VALID,0,VALID,20.0374,VALID,63,VALID,0,
2012-07-19, 00:46:04,VALID,918.032,VALID,0,VALID,96.9622,VALID,0,VALID,19.9593,VALID,63,VALID,0,
2012-07-19, 00:47:04,VALID,918.039,VALID,0,VALID,96.7869,VALID,0,VALID,19.8618,VALID,63,VALID,0,
2012-07-19, 00:48:04,VALID,918.027,VALID,0,VALID,96.8326,VALID,0,VALID,19.8228,VALID,63,VALID,0,
2012-07-19, 00:49:04,VALID,918.033,VALID,0,VALID,96.9546,VALID,0,VALID,19.8618,VALID,63,VALID,0,
2012-07-19, 00:50:04,VALID,918.044,VALID,0,VALID,97.0232,VALID,0,VALID,19.8798,VALID,63,VALID,0,
2012-07-19, 00:51:04,VALID,918.016,VALID,0,VALID,97.008,VALID,0,VALID,19.9398,VALID,63,VALID,0,
2012-07-19, 00:52:04,VALID,918.059,VALID,0,VALID,97.0385,VALID,0,VALID,19.9398,VALID,63,VALID,0,
2012-07-19, 00:53:04,VALID,918.012,VALID,0,VALID,97.0385,VALID,0,VALID,19.9593,VALID,63,VALID,0,
2012-07-19, 00:54:04,VALID,918.019,VALID,0,VALID,97.0461,VALID,0,VALID,19.9788,VALID,63,VALID,0,
2012-07-19, 00:55:04,VALID,918.03,VALID,0,VALID,97.0461,VALID,0,VALID,20.0179,VALID,63,VALID,0,
2012-07-19, 00:56:04,VALID,917.989,VALID,0,VALID,97.0537,VALID,0,VALID,20.0374,VALID,63,VALID,0,
2012-07-19, 00:57:04,VALID,917.975,VALID,0,VALID,97.0766,VALID,0,VALID,20.0569,VALID,63,VALID,0,
2012-07-19, 00:58:04,VALID,917.954,VALID,0,VALID,97.0766,VALID,0,VALID,20.0374,VALID,63,VALID,0,
2012-07-19, 00:59:04,VALID,917.931,VALID,0,VALID,97.069,VALID,0,VALID,19.9788,VALID,63,VALID,0,
2012-07-19, 01:00:04,VALID,917.919,VALID,0,VALID,97.0232,VALID,0,VALID,19.9398,VALID,63,VALID,0,
2012-07-19, 01:01:04,VALID,917.918,VALID,0,VALID,97.0156,VALID,0,VALID,19.9008,VALID,63,VALID,0,
2012-07-19, 01:02:04,VALID,917.91,VALID,0,VALID,97.0156,VALID,0,VALID,19.8813,VALID,63,VALID,0,
2012-07-19, 01:03:04,VALID,917.889,VALID,0,VALID,96.6802,VALID,0,VALID,19.7448,VALID,63,VALID,0,
2012-07-19, 01:04:04,VALID,917.864,VALID,0,VALID,96.8631,VALID,0,VALID,19.7058,VALID,63,VALID,0,
2012-07-19, 01:05:04,VALID,917.843,VALID,0,VALID,96.9165,VALID,0,VALID,19.6863,VALID,63,VALID,0,
2012-07-19, 01:06:04,VALID,917.842,VALID,0,VALID,96.9089,VALID,0,VALID,19.6473,VALID,63,VALID,0,
2012-07-19, 01:07:04,VALID,917.843,VALID,0,VALID,97.008,VALID,0,VALID,19.6473,VALID,63,VALID,0,
2012-07-19, 01:08:04,VALID,917.824,VALID,0,VALID,97.0537,VALID,0,VALID,19.6668,VALID,64,VALID,0,
2012-07-19, 01:09:04,VALID,917.853,VALID,0,VALID,97.069,VALID,0,VALID,19.6863,VALID,63,VALID,0,
2012-07-19, 01:10:04,VALID,917.802,VALID,0,VALID,97.0994,VALID,0,VALID,19.7253,VALID,63,VALID,0,
2012-07-19, 01:11:04,VALID,917.83,VALID,0,VALID,97.1147,VALID,0,VALID,19.7838,VALID,63,VALID,0,
2012-07-19, 01:12:04,VALID,917.823,VALID,0,VALID,97.1376,VALID,0,VALID,19.8228,VALID,63,VALID,0,
2012-07-19, 01:13:04,VALID,917.803,VALID,0,VALID,97.1376,VALID,0,VALID,19.8018,VALID,63,VALID,0,
2012-07-19, 01:14:04,VALID,917.829,VALID,0,VALID,97.1681,VALID,0,VALID,19.8033,VALID,63,VALID,0,
2012-07-19, 01:15:04,VALID,917.832,VALID,0,VALID,97.1376,VALID,0,VALID,19.8228,VALID,63,VALID,0,
2012-07-19, 01:16:04,VALID,917.803,VALID,0,VALID,97.1528,VALID,0,VALID,19.8033,VALID,63,VALID,0,
2012-07-19, 01:17:04,VALID,917.758,VALID,0,VALID,97.1528,VALID,0,VALID,19.8033,VALID,63,VALID,0,
2012-07-19, 01:18:04,VALID,917.742,VALID,0,VALID,97.1452,VALID,0,VALID,19.8033,VALID,63,VALID,0,
2012-07-19, 01:19:04,VALID,917.75,VALID,0,VALID,97.1299,VALID,0,VALID,19.7838,VALID,63,VALID,0,
2012-07-19, 01:20:04,VALID,917.714,VALID,0,VALID,97.1528,VALID,0,VALID,19.7448,VALID,63,VALID,0,
2012-07-19, 01:21:04,VALID,917.729,VALID,0,VALID,97.1223,VALID,0,VALID,19.6863,VALID,63,VALID,0,
2012-07-19, 01:22:04,VALID,917.732,VALID,0,VALID,97.1223,VALID,0,VALID,19.6458,VALID,63,VALID,0,
2012-07-19, 01:23:04,VALID,917.703,VALID,0,VALID,97.1071,VALID,0,VALID,19.6278,VALID,63,VALID,0,
2012-07-19, 01:24:04,VALID,917.718,VALID,0,VALID,97.1147,VALID,0,VALID,19.5888,VALID,63,VALID,0,
2012-07-19, 01:25:04,VALID,917.698,VALID,0,VALID,97.1147,VALID,0,VALID,19.5888,VALID,63,VALID,0,
2012-07-19, 01:26:04,VALID,917.724,VALID,0,VALID,97.1223,VALID,0,VALID,19.5693,VALID,63,VALID,0,
2012-07-19, 01:27:04,VALID,917.75,VALID,0,VALID,97.1452,VALID,0,VALID,19.5888,VALID,63,VALID,0,
2012-07-19, 01:28:04,VALID,917.722,VALID,0,VALID,97.1528,VALID,0,VALID,19.6083,VALID,63,VALID,0,
2012-07-19, 01:29:04,VALID,917.765,VALID,0,VALID,97.1757,VALID,0,VALID,19.6068,VALID,63,VALID,0,
2012-07-19, 01:30:04,VALID,917.714,VALID,0,VALID,97.1681,VALID,0,VALID,19.5888,VALID,63,VALID,0,
2012-07-19, 01:31:04,VALID,917.749,VALID,0,VALID,97.1909,VALID,0,VALID,19.5888,VALID,63,VALID,0,
2012-07-19, 01:32:04,VALID,917.741,VALID,0,VALID,97.1909,VALID,0,VALID,19.6068,VALID,63,VALID,0,
2012-07-19, 01:33:04,VALID,917.719,VALID,0,VALID,97.2214,VALID,0,VALID,19.6278,VALID,63,VALID,0,
2012-07-19, 01:34:04,VALID,917.714,VALID,0,VALID,97.2214,VALID,0,VALID,19.6473,VALID,63,VALID,0,
2012-07-19, 01:35:04,VALID,917.68,VALID,0,VALID,97.2214,VALID,0,VALID,19.6473,VALID,63,VALID,0,
2012-07-19, 01:36:04,VALID,917.669,VALID,0,VALID,97.2367,VALID,0,VALID,19.6668,VALID,63,VALID,0,
2012-07-19, 01:37:04,VALID,917.654,VALID,0,VALID,97.2367,VALID,0,VALID,19.6473,VALID,64,VALID,0,
2012-07-19, 01:38:04,VALID,917.635,VALID,0,VALID,97.2443,VALID,0,VALID,19.6668,VALID,64,VALID,0,
2012-07-19, 01:39:04,VALID,917.62,VALID,0,VALID,97.2595,VALID,0,VALID,19.6863,VALID,64,VALID,0,
2012-07-19, 01:40:04,VALID,917.611,VALID,0,VALID,97.2443,VALID,0,VALID,19.6863,VALID,64,VALID,0,
2012-07-19, 01:41:04,VALID,917.603,VALID,0,VALID,97.2672,VALID,0,VALID,19.6668,VALID,64,VALID,0,
2012-07-19, 01:42:04,VALID,917.613,VALID,0,VALID,97.2595,VALID,0,VALID,19.7058,VALID,64,VALID,0,
2012-07-19, 01:43:04,VALID,917.598,VALID,0.2,VALID,97.2672,VALID,0,VALID,19.7058,VALID,64,VALID,0,
2012-07-19, 01:44:04,VALID,917.607,VALID,0,VALID,97.2672,VALID,0,VALID,19.7253,VALID,64,VALID,0,
2012-07-19, 01:45:04,VALID,917.61,VALID,0,VALID,97.2672,VALID,0,VALID,19.7058,VALID,64,VALID,0,
2012-07-19, 01:46:04,VALID,917.613,VALID,0,VALID,97.29,VALID,0,VALID,19.6848,VALID,64,VALID,0,
2012-07-19, 01:47:04,VALID,917.606,VALID,0,VALID,97.2595,VALID,0,VALID,19.6863,VALID,64,VALID,0,
2012-07-19, 01:48:04,VALID,917.638,VALID,0,VALID,97.2824,VALID,0,VALID,19.7253,VALID,64,VALID,0,
2012-07-19, 01:49:04,VALID,917.63,VALID,0,VALID,97.2672,VALID,0,VALID,19.7253,VALID,64,VALID,0,
2012-07-19, 01:50:04,VALID,917.628,VALID,0,VALID,97.2748,VALID,0,VALID,19.7643,VALID,64,VALID,0,
2012-07-19, 01:51:04,VALID,917.63,VALID,0,VALID,97.29,VALID,0,VALID,19.7643,VALID,64,VALID,0,
2012-07-19, 01:52:04,VALID,917.597,VALID,0,VALID,97.3053,VALID,0,VALID,19.7838,VALID,64,VALID,0,
2012-07-19, 01:53:04,VALID,917.612,VALID,0,VALID,97.29,VALID,0,VALID,19.8033,VALID,64,VALID,0,
2012-07-19, 01:54:04,VALID,917.601,VALID,0,VALID,97.3053,VALID,0,VALID,19.8228,VALID,64,VALID,0,
2012-07-19, 01:55:04,VALID,917.579,VALID,0,VALID,97.3205,VALID,0,VALID,19.8228,VALID,64,VALID,0,
2012-07-19, 01:56:04,VALID,917.554,VALID,0,VALID,97.2977,VALID,0.107441,VALID,19.8408,VALID,64,VALID,0,
2012-07-19, 01:57:04,VALID,917.554,VALID,0,VALID,97.3129,VALID,0.107441,VALID,19.8213,VALID,64,VALID,0,
2012-07-19, 01:58:04,VALID,917.531,VALID,0,VALID,97.3129,VALID,0.107441,VALID,19.8213,VALID,64,VALID,0,
2012-07-19, 01:59:04,VALID,917.528,VALID,0,VALID,97.3129,VALID,0.107441,VALID,19.8603,VALID,64,VALID,0,
2012-07-19, 02:00:04,VALID,917.523,VALID,0,VALID,97.3129,VALID,0,VALID,19.8588,VALID,64,VALID,0,
2012-07-19, 02:01:04,VALID,917.506,VALID,0,VALID,97.3281,VALID,0.107441,VALID,19.8798,VALID,146,VALID,0,
2012-07-19, 02:02:04,VALID,917.528,VALID,0,VALID,97.3129,VALID,0.107441,VALID,19.8798,VALID,146,VALID,0,
2012-07-19, 02:03:04,VALID,917.504,VALID,0,VALID,97.3358,VALID,0.107441,VALID,19.8993,VALID,146,VALID,0,
2012-07-19, 02:04:04,VALID,917.524,VALID,0,VALID,97.3205,VALID,0,VALID,19.8798,VALID,146,VALID,0,
2012-07-19, 02:05:04,VALID,917.5,VALID,0,VALID,97.3281,VALID,0.107441,VALID,19.8993,VALID,146,VALID,0,
2012-07-19, 02:06:04,VALID,917.51,VALID,0,VALID,97.3434,VALID,0.107441,VALID,19.9188,VALID,146,VALID,0,
2012-07-19, 02:07:04,VALID,917.491,VALID,0,VALID,97.3358,VALID,0.107441,VALID,19.9188,VALID,146,VALID,0,
2012-07-19, 02:08:04,VALID,917.481,VALID,0,VALID,97.3281,VALID,0,VALID,19.9398,VALID,146,VALID,0,
2012-07-19, 02:09:04,VALID,917.465,VALID,0,VALID,97.3205,VALID,0.107441,VALID,19.9188,VALID,146,VALID,0,
2012-07-19, 02:10:04,VALID,917.488,VALID,0,VALID,97.3205,VALID,0.107441,VALID,19.9383,VALID,146,VALID,0,
2012-07-19, 02:11:04,VALID,917.471,VALID,0,VALID,97.3205,VALID,0.107441,VALID,19.9398,VALID,146,VALID,0,
2012-07-19, 02:12:04,VALID,917.456,VALID,0,VALID,97.3358,VALID,0.107441,VALID,19.9398,VALID,146,VALID,0,
2012-07-19, 02:13:04,VALID,917.423,VALID,0,VALID,97.3281,VALID,0,VALID,19.8993,VALID,146,VALID,0,
2012-07-19, 02:14:04,VALID,917.459,VALID,0,VALID,97.3358,VALID,0,VALID,19.9203,VALID,146,VALID,0,
2012-07-19, 02:15:04,VALID,917.421,VALID,0,VALID,97.3358,VALID,0,VALID,19.8798,VALID,146,VALID,0,
2012-07-19, 02:16:04,VALID,917.399,VALID,0,VALID,97.351,VALID,0.107441,VALID,19.8993,VALID,146,VALID,0,
2012-07-19, 02:17:04,VALID,917.401,VALID,0,VALID,97.3434,VALID,0.107441,VALID,19.8993,VALID,146,VALID,0,
2012-07-19, 02:18:04,VALID,917.403,VALID,0,VALID,97.3205,VALID,0,VALID,19.8798,VALID,146,VALID,0,
2012-07-19, 02:19:04,VALID,917.397,VALID,0,VALID,97.3434,VALID,0,VALID,19.8798,VALID,146,VALID,0,
2012-07-19, 02:20:04,VALID,917.407,VALID,0,VALID,97.3281,VALID,0,VALID,19.8798,VALID,146,VALID,0,
2012-07-19, 02:21:04,VALID,917.371,VALID,0,VALID,97.3358,VALID,0,VALID,19.8603,VALID,146,VALID,0,
2012-07-19, 02:22:04,VALID,917.344,VALID,0,VALID,97.3281,VALID,0,VALID,19.8798,VALID,146,VALID,0,
2012-07-19, 02:23:04,VALID,917.332,VALID,0,VALID,97.3586,VALID,0,VALID,19.8603,VALID,146,VALID,0,
2012-07-19, 02:24:04,VALID,917.305,VALID,0,VALID,97.3434,VALID,0,VALID,19.8813,VALID,146,VALID,0,
2012-07-19, 02:25:04,VALID,917.27,VALID,0,VALID,97.351,VALID,0,VALID,19.8423,VALID,146,VALID,0,
2012-07-19, 02:26:04,VALID,917.25,VALID,0,VALID,97.3663,VALID,0,VALID,19.8618,VALID,146,VALID,0,
2012-07-19, 02:27:04,VALID,917.241,VALID,0,VALID,97.3663,VALID,0,VALID,19.8228,VALID,146,VALID,0,
2012-07-19, 02:28:04,VALID,917.204,VALID,0,VALID,97.3663,VALID,0,VALID,19.8423,VALID,146,VALID,0,
2012-07-19, 02:29:04,VALID,917.179,VALID,0,VALID,97.3586,VALID,0,VALID,19.8033,VALID,146,VALID,0,
2012-07-19, 02:30:04,VALID,917.193,VALID,0,VALID,97.351,VALID,0,VALID,19.7838,VALID,146,VALID,0,
2012-07-19, 02:31:04,VALID,917.188,VALID,0,VALID,97.3663,VALID,0,VALID,19.7433,VALID,146,VALID,0,
2012-07-19, 02:32:04,VALID,917.184,VALID,0,VALID,97.3663,VALID,0,VALID,19.7448,VALID,146,VALID,0,
2012-07-19, 02:33:04,VALID,917.165,VALID,0,VALID,97.3815,VALID,0,VALID,19.7043,VALID,146,VALID,0,
2012-07-19, 02:34:04,VALID,917.175,VALID,0,VALID,97.3586,VALID,0,VALID,19.7043,VALID,146,VALID,0,
2012-07-19, 02:35:04,VALID,917.188,VALID,0,VALID,97.3739,VALID,0,VALID,19.7043,VALID,146,VALID,0,
2012-07-19, 02:36:04,VALID,917.142,VALID,0,VALID,97.3586,VALID,0,VALID,19.7253,VALID,146,VALID,0,
2012-07-19, 02:37:04,VALID,917.126,VALID,0,VALID,97.3968,VALID,0,VALID,19.7448,VALID,146,VALID,0,
2012-07-19, 02:38:04,VALID,917.128,VALID,0,VALID,97.3968,VALID,0,VALID,19.7238,VALID,146,VALID,0,
2012-07-19, 02:39:04,VALID,917.117,VALID,0,VALID,97.3891,VALID,0,VALID,19.7448,VALID,146,VALID,0,
2012-07-19, 02:40:04,VALID,917.073,VALID,0,VALID,97.3968,VALID,0,VALID,19.7238,VALID,135,VALID,0,
2012-07-19, 02:41:04,VALID,917.072,VALID,0,VALID,97.3968,VALID,0,VALID,19.7643,VALID,135,VALID,0,
2012-07-19, 02:42:04,VALID,917.06,VALID,0,VALID,97.3968,VALID,0,VALID,19.7238,VALID,135,VALID,0,
2012-07-19, 02:43:04,VALID,917.015,VALID,0,VALID,97.412,VALID,0,VALID,19.7253,VALID,134,VALID,0,
2012-07-19, 02:44:04,VALID,917.007,VALID,0,VALID,97.4196,VALID,0,VALID,19.7253,VALID,122,VALID,0,
2012-07-19, 02:45:04,VALID,917.027,VALID,0,VALID,97.412,VALID,0,VALID,19.7043,VALID,119,VALID,0,
2012-07-19, 02:46:04,VALID,916.991,VALID,0,VALID,97.4273,VALID,0,VALID,19.6848,VALID,125,VALID,0,
2012-07-19, 02:47:04,VALID,916.997,VALID,0,VALID,97.4196,VALID,0,VALID,19.7058,VALID,111,VALID,0,
2012-07-19, 02:48:04,VALID,916.969,VALID,0,VALID,97.412,VALID,0,VALID,19.6848,VALID,112,VALID,0,
2012-07-19, 02:49:04,VALID,916.974,VALID,0,VALID,97.4273,VALID,0,VALID,19.6863,VALID,128,VALID,0,
2012-07-19, 02:50:04,VALID,916.931,VALID,0,VALID,97.4196,VALID,0.107441,VALID,19.6863,VALID,127,VALID,0,
2012-07-19, 02:51:04,VALID,916.948,VALID,0,VALID,97.4349,VALID,0,VALID,19.7058,VALID,153,VALID,0,
2012-07-19, 02:52:04,VALID,916.971,VALID,0,VALID,97.412,VALID,0.107441,VALID,19.7058,VALID,147,VALID,0,
2012-07-19, 02:53:04,VALID,916.954,VALID,0,VALID,97.4425,VALID,0,VALID,19.7058,VALID,165,VALID,0,
2012-07-19, 02:54:04,VALID,916.933,VALID,0,VALID,97.4044,VALID,0,VALID,19.7253,VALID,167,VALID,0,
2012-07-19, 02:55:04,VALID,916.942,VALID,0,VALID,97.4349,VALID,0,VALID,19.6848,VALID,163,VALID,0,
2012-07-19, 02:56:04,VALID,916.908,VALID,0,VALID,97.4425,VALID,0,VALID,19.7058,VALID,164,VALID,0,
2012-07-19, 02:57:04,VALID,916.882,VALID,0,VALID,97.4196,VALID,0,VALID,19.6848,VALID,154,VALID,0,
2012-07-19, 02:58:04,VALID,916.894,VALID,0,VALID,97.4425,VALID,0,VALID,19.7058,VALID,149,VALID,0,
2012-07-19, 02:59:04,VALID,916.851,VALID,0,VALID,97.4501,VALID,0,VALID,19.6863,VALID,170,VALID,0,
2012-07-19, 03:00:04,VALID,916.862,VALID,0,VALID,97.4425,VALID,0,VALID,19.6668,VALID,159,VALID,0,
2012-07-19, 03:01:04,VALID,916.863,VALID,0,VALID,97.4577,VALID,0,VALID,19.6668,VALID,156,VALID,0,
2012-07-19, 03:02:04,VALID,916.836,VALID,0,VALID,97.4577,VALID,0,VALID,19.6668,VALID,150,VALID,0,
2012-07-19, 03:03:04,VALID,916.855,VALID,0,VALID,97.4425,VALID,0,VALID,19.6473,VALID,146,VALID,0,
2012-07-19, 03:04:04,VALID,916.827,VALID,0,VALID,97.4577,VALID,0,VALID,19.6083,VALID,146,VALID,0,
2012-07-19, 03:05:04,VALID,916.833,VALID,0,VALID,97.4654,VALID,0,VALID,19.6083,VALID,145,VALID,0,
2012-07-19, 03:06:04,VALID,916.822,VALID,0,VALID,97.4577,VALID,0,VALID,19.6083,VALID,140,VALID,0,
2012-07-19, 03:07:04,VALID,916.837,VALID,0,VALID,97.4577,VALID,0,VALID,19.5888,VALID,136,VALID,0,
2012-07-19, 03:08:04,VALID,916.837,VALID,0,VALID,97.4806,VALID,0,VALID,19.5888,VALID,136,VALID,0,
2012-07-19, 03:09:04,VALID,916.832,VALID,0,VALID,97.4577,VALID,0,VALID,19.5888,VALID,136,VALID,0,
2012-07-19, 03:10:04,VALID,916.834,VALID,0,VALID,97.473,VALID,0,VALID,19.5888,VALID,124,VALID,0,
2012-07-19, 03:11:04,VALID,916.855,VALID,0,VALID,97.4806,VALID,0,VALID,19.5678,VALID,132,VALID,0,
2012-07-19, 03:12:04,VALID,916.854,VALID,0,VALID,97.4806,VALID,0.107441,VALID,19.5873,VALID,132,VALID,0,
2012-07-19, 03:13:04,VALID,916.886,VALID,0,VALID,97.4654,VALID,0.107441,VALID,19.5873,VALID,132,VALID,0,
2012-07-19, 03:14:04,VALID,916.884,VALID,0,VALID,97.4959,VALID,0.107441,VALID,19.5678,VALID,132,VALID,0,
2012-07-19, 03:15:04,VALID,916.869,VALID,0,VALID,97.473,VALID,0.107441,VALID,19.5873,VALID,132,VALID,0,
2012-07-19, 03:16:04,VALID,916.89,VALID,0,VALID,97.4806,VALID,0,VALID,19.5873,VALID,132,VALID,0,
2012-07-19, 03:17:04,VALID,916.856,VALID,0,VALID,97.4806,VALID,0.107441,VALID,19.6068,VALID,132,VALID,0,
2012-07-19, 03:18:04,VALID,916.865,VALID,0,VALID,97.4806,VALID,0,VALID,19.5873,VALID,132,VALID,0,
2012-07-19, 03:19:04,VALID,916.847,VALID,0,VALID,97.4882,VALID,0.107441,VALID,19.5873,VALID,135,VALID,0,
2012-07-19, 03:20:04,VALID,916.862,VALID,0,VALID,97.4806,VALID,0.107441,VALID,19.5678,VALID,101,VALID,0,
2012-07-19, 03:21:04,VALID,916.852,VALID,0,VALID,97.4806,VALID,0.107441,VALID,19.5483,VALID,101,VALID,0,
2012-07-19, 03:22:04,VALID,916.859,VALID,0,VALID,97.5035,VALID,0.107441,VALID,19.5483,VALID,101,VALID,0,
2012-07-19, 03:23:04,VALID,916.858,VALID,0,VALID,97.4882,VALID,0,VALID,19.5288,VALID,117,VALID,0,
2012-07-19, 03:24:04,VALID,916.833,VALID,0,VALID,97.5187,VALID,0.107441,VALID,19.5093,VALID,135,VALID,0,
2012-07-19, 03:25:04,VALID,916.84,VALID,0,VALID,97.5035,VALID,0,VALID,19.4898,VALID,119,VALID,0,
2012-07-19, 03:26:04,VALID,916.821,VALID,0,VALID,97.5035,VALID,0,VALID,19.4913,VALID,120,VALID,0,
2012-07-19, 03:27:04,VALID,916.865,VALID,0,VALID,97.4882,VALID,0,VALID,19.5108,VALID,130,VALID,0,
2012-07-19, 03:28:04,VALID,916.873,VALID,0,VALID,97.5111,VALID,0,VALID,19.4913,VALID,123,VALID,0,
2012-07-19, 03:29:04,VALID,916.833,VALID,0,VALID,97.5187,VALID,0,VALID,19.4913,VALID,127,VALID,0,
2012-07-19, 03:30:04,VALID,916.843,VALID,0,VALID,97.4882,VALID,0,VALID,19.5108,VALID,109,VALID,0,
2012-07-19, 03:31:04,VALID,916.865,VALID,0,VALID,97.5187,VALID,0,VALID,19.4913,VALID,113,VALID,0,
2012-07-19, 03:32:04,VALID,916.868,VALID,0,VALID,97.5264,VALID,0,VALID,19.5108,VALID,111,VALID,0,
2012-07-19, 03:33:04,VALID,916.866,VALID,0,VALID,97.5264,VALID,0,VALID,19.5108,VALID,111,VALID,0,
2012-07-19, 03:34:04,VALID,916.866,VALID,0,VALID,97.5264,VALID,0,VALID,19.5303,VALID,153,VALID,0,
2012-07-19, 03:35:04,VALID,916.902,VALID,0,VALID,97.5264,VALID,0,VALID,19.5303,VALID,149,VALID,0,
2012-07-19, 03:36:04,VALID,916.877,VALID,0,VALID,97.5187,VALID,0,VALID,19.5108,VALID,124,VALID,0,
2012-07-19, 03:37:04,VALID,916.909,VALID,0,VALID,97.5264,VALID,0,VALID,19.5303,VALID,124,VALID,0,
2012-07-19, 03:38:04,VALID,916.903,VALID,0,VALID,97.5416,VALID,0,VALID,19.5708,VALID,130,VALID,0,
2012-07-19, 03:39:04,VALID,916.903,VALID,0,VALID,97.5492,VALID,0,VALID,19.5512,VALID,159,VALID,0,
2012-07-19, 03:40:04,VALID,916.884,VALID,0,VALID,97.5264,VALID,0,VALID,19.5108,VALID,165,VALID,0,
2012-07-19, 03:41:04,VALID,916.898,VALID,0,VALID,97.534,VALID,0.107441,VALID,19.5093,VALID,166,VALID,0,
2012-07-19, 03:42:04,VALID,916.877,VALID,0,VALID,97.534,VALID,0,VALID,19.5288,VALID,166,VALID,0,
2012-07-19, 03:43:04,VALID,916.878,VALID,0,VALID,97.5111,VALID,0,VALID,19.5093,VALID,167,VALID,0,
2012-07-19, 03:44:04,VALID,916.854,VALID,0,VALID,97.5264,VALID,0.107441,VALID,19.5288,VALID,162,VALID,0,
2012-07-19, 03:45:04,VALID,916.892,VALID,0,VALID,97.534,VALID,0,VALID,19.5093,VALID,174,VALID,0,
2012-07-19, 03:46:04,VALID,916.895,VALID,0,VALID,97.5416,VALID,0,VALID,19.5288,VALID,174,VALID,0,
2012-07-19, 03:47:04,VALID,916.877,VALID,0,VALID,97.5264,VALID,0,VALID,19.5288,VALID,174,VALID,0,
2012-07-19, 03:48:04,VALID,916.89,VALID,0,VALID,97.5264,VALID,0.107441,VALID,19.5288,VALID,174,VALID,0,
2012-07-19, 03:49:04,VALID,916.866,VALID,0,VALID,97.534,VALID,0,VALID,19.5288,VALID,174,VALID,0,
2012-07-19, 03:50:04,VALID,916.875,VALID,0,VALID,97.5416,VALID,0.107441,VALID,19.5288,VALID,174,VALID,0,
2012-07-19, 03:51:04,VALID,916.865,VALID,0,VALID,97.5416,VALID,0,VALID,19.5288,VALID,144,VALID,0,
2012-07-19, 03:52:04,VALID,916.864,VALID,0,VALID,97.534,VALID,0,VALID,19.5093,VALID,153,VALID,0,
2012-07-19, 03:53:04,VALID,916.866,VALID,0,VALID,97.5569,VALID,0,VALID,19.5093,VALID,163,VALID,0,
2012-07-19, 03:54:04,VALID,916.882,VALID,0,VALID,97.5264,VALID,0,VALID,19.5108,VALID,141,VALID,0,
2012-07-19, 03:55:04,VALID,916.848,VALID,0,VALID,97.5264,VALID,0,VALID,19.4898,VALID,141,VALID,0,
2012-07-19, 03:56:04,VALID,916.88,VALID,0,VALID,97.5416,VALID,0,VALID,19.4718,VALID,141,VALID,0,
2012-07-19, 03:57:04,VALID,916.893,VALID,0,VALID,97.5264,VALID,0,VALID,19.4718,VALID,141,VALID,0,
2012-07-19, 03:58:04,VALID,916.861,VALID,0,VALID,97.5492,VALID,0,VALID,19.4327,VALID,141,VALID,0,
2012-07-19, 03:59:04,VALID,916.882,VALID,0,VALID,97.5645,VALID,0,VALID,19.4327,VALID,141,VALID,0,